AL7BX-WX Weather Reports


time (UTC)temp
F
wind
direction
speed
knots
gust
knots
rain 1hr
in
rain 24hr
in
rain mn
in
humidity
%
barometer
mb
20260830224713 83 179 9.6 20.0 0.00 0.00 0.00 32
20260830223603 84 181 7.8 19.1 0.00 0.00 0.00 31
20260830222703 84 174 8.7 20.0 0.00 0.00 0.00 30
20260830221803 84 164 9.6 18.2 0.00 0.00 0.00 29
20260830220903 85 165 9.6 20.9 0.00 0.00 0.00 28
20260830220003 85 171 10.4 20.9 0.00 0.00 0.00 30
20260830215403 86 166 9.6 20.9 0.00 0.00 0.00 29
20260830214503 86 177 8.7 16.5 0.00 0.00 0.00 28
20260830213603 86 180 8.7 14.8 0.00 0.00 0.00 31
20260830212703 86 178 9.6 20.9 0.00 0.00 0.00 30
20260830212012 85 182 9.6 19.1 0.00 0.00 0.00 30
20260830210903 84 184 9.6 19.1 0.00 0.00 0.00 32
20260830210213 84 169 9.6 23.5 0.00 0.00 0.00 31
20260830205403 85 180 10.4 22.6 0.00 0.00 0.00 31
20260830204503 85 164 9.6 21.7 0.00 0.00 0.00 31
20260830203603 84 170 7.8 21.7 0.00 0.00 0.00 32
20260830202703 84 192 7.8 20.0 0.00 0.00 0.00 31
20260830201803 85 179 8.7 18.2 0.00 0.00 0.00 31
20260830200903 85 176 8.7 20.0 0.00 0.00 0.00 31
20260830200003 84 176 9.6 19.1 0.00 0.00 0.00 31
20260830195614 85 178 9.6 20.0 0.00 0.00 0.00 32
20260830194503 85 184 7.0 16.5 0.00 0.00 0.00 32